Edinburg, TX

12:50 AM CDT on July 22, 2017 (GMT -0500)
Edinburg

Weather History for KEBG - January, 2013

Change the Weather History Date:

Wednesday, January 2, 2013

  Actual Average (KMFE) Record (KMFE)
Temperature  
Mean Temperature 50 °F -  
Max Temperature 57 °F 70 °F 93 °F (2017)
Min Temperature 43 °F 49 °F 30 °F (1899)
Degree Days  
Heating Degree Days 15    
Moisture  
Dew Point 43 °F    
Average Humidity 83    
Maximum Humidity 90    
Minimum Humidity 65    
Precipitation  
Precipitation 0.14 in - - ()
Sea Level Pressure  
Sea Level Pressure 30.25 in    
Wind  
Wind Speed 10 mph (North)    
Max Wind Speed 15 mph    
Max Gust Speed 20 mph    
Visibility 7 miles    
Events Rain    
Averages and records for this station are not official NWS values.
T = Trace of Precipitation, MM = Missing Value Source: NWS Daily Summary

Daily Weather History Graph

Daily Weather History Graph

Search for Another Location

Airport or City:

Trip Planner

Search our weather history database for the weather conditions in past years. The results will help you decide how hot, cold, wet, or windy it might be!

Date:

Astronomy

Jan. 02, 2013 Rise Set
Actual Time 7:20 AM CST 5:52 PM CST
Civil Twilight 6:55 AM CST 6:17 PM CST
Nautical Twilight 6:26 AM CST 6:46 PM CST
Astronomical Twilight 5:58 AM CST 7:14 PM CST
Moon 10:52 PM CST (1/2) 10:33 AM CST (1/2)
Length of Visible Light 11h 22m
Length of Day
10h 31m
Waning Gibbous, 75% of the Moon is Illuminated
Jan 2
Waning Gibbous
Jan 4
Last Quarter
Jan 11
New
Jan 18
First Quarter
Jan 26
Full

Hourly Weather History & Observations

Time (CST) Temp. Windchill Dew Point Humidity Pressure Visibility Wind Dir Wind Speed Gust Speed Precip Events Conditions
12:15 AM 57.9 °F - 46.4 °F 65% 30.15 in 7.0 mi NNE 9.2 mph - N/A   Scattered Clouds
12:35 AM 57.6 °F - 46.0 °F 65% 30.17 in 7.0 mi NNE 8.1 mph - N/A   Clear
12:55 AM 57.4 °F - 46.0 °F 66% 30.18 in 10.0 mi North 6.9 mph - N/A   Scattered Clouds
1:15 AM 57.2 °F - 46.4 °F 67% 30.18 in 7.0 mi North 8.1 mph - N/A   Clear
1:35 AM 56.8 °F - 46.4 °F 68% 30.17 in 7.0 mi North 10.4 mph - N/A   Scattered Clouds
1:55 AM 56.3 °F - 46.6 °F 70% 30.18 in 7.0 mi North 11.5 mph - N/A   Scattered Clouds
2:15 AM 55.9 °F - 46.4 °F 70% 30.17 in 7.0 mi North 15.0 mph 19.6 mph N/A   Mostly Cloudy
2:35 AM 55.4 °F - 46.2 °F 71% 30.20 in 7.0 mi North 10.4 mph 16.1 mph N/A Rain Light Rain
3:15 AM 53.6 °F - 46.9 °F 78% 30.18 in 10.0 mi North 9.2 mph - N/A Rain Light Rain
3:35 AM 52.7 °F - 46.6 °F 80% 30.20 in 10.0 mi North 9.2 mph - N/A Rain Light Rain
3:55 AM 52.0 °F - 44.6 °F 76% 30.19 in 7.0 mi North 10.4 mph - N/A   Overcast
4:15 AM 51.4 °F - 44.1 °F 76% 30.19 in 10.0 mi North 10.4 mph 18.4 mph N/A Rain Light Rain
4:35 AM 51.1 °F - 44.2 °F 77% 30.19 in 10.0 mi North 11.5 mph - 0.01 in Rain Light Rain
4:55 AM 51.1 °F - 43.7 °F 76% 30.19 in 10.0 mi North 12.7 mph - 0.01 in   Light Drizzle
5:15 AM 50.9 °F - 42.8 °F 74% 30.20 in 10.0 mi North 10.4 mph - N/A Rain Light Rain
5:35 AM 50.5 °F - 42.6 °F 74% 30.21 in 10.0 mi North 15.0 mph - N/A   Light Drizzle
5:55 AM 50.0 °F - 43.3 °F 78% 30.22 in 10.0 mi North 10.4 mph - N/A Rain Light Rain
6:15 AM 49.6 °F - 43.7 °F 80% 30.21 in 10.0 mi North 11.5 mph - 0.01 in Rain Light Rain
6:35 AM 49.3 °F - 43.7 °F 81% 30.21 in 10.0 mi North 11.5 mph - 0.01 in   Light Drizzle
6:55 AM 49.1 °F - 43.5 °F 81% 30.21 in 10.0 mi NNE 11.5 mph 17.3 mph 0.01 in   Light Drizzle
7:15 AM 48.7 °F - 43.0 °F 80% 30.24 in 10.0 mi NNE 8.1 mph - N/A Rain Light Rain
7:35 AM 48.4 °F - 43.0 °F 82% 30.24 in 10.0 mi NNE 10.4 mph - N/A Rain Light Rain
7:55 AM 48.4 °F - 43.5 °F 83% 30.25 in 10.0 mi North 10.4 mph - N/A Rain Light Rain
8:15 AM 48.2 °F - 43.3 °F 83% 30.26 in 7.0 mi North 10.4 mph - N/A Rain Light Rain
8:35 AM 48.2 °F - 43.0 °F 82% 30.28 in 10.0 mi North 8.1 mph - N/A   Light Drizzle
9:15 AM 48.0 °F - 43.3 °F 84% 30.31 in 7.0 mi North 6.9 mph - N/A   Drizzle
9:35 AM 47.8 °F - 43.5 °F 85% 30.30 in 7.0 mi North 10.4 mph - 0.01 in Rain Light Rain
9:55 AM 47.5 °F - 42.8 °F 84% 30.31 in 7.0 mi North 11.5 mph 17.3 mph 0.01 in Rain Light Rain
10:15 AM 47.3 °F - 42.3 °F 83% 30.31 in 10.0 mi NNE 11.5 mph - N/A Rain Rain
10:35 AM 47.5 °F - 43.0 °F 84% 30.31 in 7.0 mi North 12.7 mph 17.3 mph N/A   Drizzle
10:55 AM 47.5 °F - 43.2 °F 85% 30.31 in 7.0 mi North 11.5 mph - N/A   Drizzle
11:15 AM 47.3 °F - 43.0 °F 85% 30.30 in 7.0 mi North 10.4 mph - 0.01 in   Drizzle
11:35 AM 46.9 °F - 43.0 °F 86% 30.30 in 5.0 mi North 12.7 mph 17.3 mph 0.02 in Rain Light Rain
11:55 AM 46.4 °F 41.5 °F 42.3 °F 85% 30.29 in 7.0 mi North 10.4 mph - 0.02 in Rain Rain
12:15 PM 46.2 °F 40.8 °F 42.3 °F 86% 30.28 in 5.0 mi North 11.5 mph 17.3 mph N/A   Overcast
12:35 PM 45.9 °F 40.4 °F 41.9 °F 86% 30.26 in 5.0 mi North 11.5 mph - N/A   Overcast
12:55 PM 45.5 °F 39.2 °F 40.3 °F 82% 30.25 in 5.0 mi North 13.8 mph - N/A   Haze
1:15 PM 45.5 °F 39.6 °F 40.1 °F 81% 30.24 in 7.0 mi North 12.7 mph - N/A   Overcast
1:35 PM 45.5 °F 40.3 °F 40.3 °F 82% 30.23 in 7.0 mi North 10.4 mph 18.4 mph N/A   Overcast
2:15 PM 45.5 °F 40.3 °F 41.0 °F 84% 30.23 in 5.0 mi North 10.4 mph - N/A   Overcast
2:35 PM 45.7 °F 39.8 °F 41.0 °F 84% 30.23 in 5.0 mi NNW 12.7 mph - N/A   Light Drizzle
2:55 PM 45.0 °F 38.2 °F 41.0 °F 86% 30.22 in 7.0 mi North 15.0 mph - N/A Rain Rain
3:15 PM 45.0 °F 39.3 °F 41.4 °F 87% 30.23 in 7.0 mi NNW 11.5 mph - N/A   Drizzle
3:35 PM 44.6 °F 38.8 °F 41.0 °F 87% 30.24 in 7.0 mi NNW 11.5 mph - N/A Rain Rain
3:55 PM 44.6 °F 38.8 °F 41.2 °F 88% 30.24 in 7.0 mi NNW 11.5 mph - 0.01 in Rain Light Rain
4:15 PM 44.4 °F 40.0 °F 41.0 °F 88% 30.24 in 7.0 mi North 8.1 mph - N/A Rain Light Rain
4:35 PM 44.8 °F 41.0 °F 41.9 °F 90% 30.24 in 5.0 mi North 6.9 mph - 0.01 in Rain Light Rain
5:15 PM 44.6 °F 39.2 °F 41.4 °F 88% 30.26 in 5.0 mi NNW 10.4 mph - 0.01 in Rain Light Rain
5:35 PM 43.9 °F 38.8 °F 41.0 °F 90% 30.25 in 5.0 mi North 9.2 mph - 0.02 in Rain Light Rain
5:55 PM 43.9 °F 38.8 °F 41.0 °F 90% 30.26 in 7.0 mi North 9.2 mph - 0.02 in Rain Light Rain
6:15 PM 44.2 °F 39.2 °F 41.4 °F 90% 30.26 in 7.0 mi North 9.2 mph - 0.01 in Rain Light Rain
6:35 PM 44.1 °F 40.1 °F 41.4 °F 90% 30.26 in 7.0 mi North 6.9 mph - 0.01 in Rain Light Rain
6:55 PM 44.1 °F 39.5 °F 41.4 °F 90% 30.26 in 7.0 mi North 8.1 mph - 0.02 in Rain Light Rain
7:15 PM 44.1 °F 40.1 °F 41.4 °F 90% 30.27 in 7.0 mi North 6.9 mph - 0.01 in Rain Light Rain
7:35 PM 43.7 °F 37.3 °F 41.0 °F 90% 30.26 in 7.0 mi NNE 12.7 mph - 0.02 in Rain Light Rain
7:55 PM 43.7 °F 38.1 °F 40.6 °F 89% 30.28 in 10.0 mi NNE 10.4 mph - 0.02 in Rain Light Rain
8:15 PM 43.5 °F 37.9 °F 40.5 °F 89% 30.30 in 7.0 mi NNW 10.4 mph - N/A Rain Rain
8:35 PM 43.5 °F 38.9 °F 40.5 °F 89% 30.31 in 7.0 mi North 8.1 mph - N/A   Drizzle
8:55 PM 43.7 °F 39.1 °F 41.0 °F 90% 30.31 in 7.0 mi NNW 8.1 mph - 0.01 in   Light Drizzle
9:15 PM 43.9 °F 39.9 °F 41.0 °F 90% 30.31 in 5.0 mi North 6.9 mph - N/A   Overcast
9:35 PM 43.9 °F 38.8 °F 41.0 °F 90% 30.30 in 5.0 mi North 9.2 mph - N/A   Overcast
9:55 PM 43.9 °F 38.3 °F 40.6 °F 88% 30.31 in 5.0 mi North 10.4 mph - N/A   Overcast
10:15 PM 43.9 °F 38.8 °F 40.5 °F 88% 30.32 in 5.0 mi North 9.2 mph - N/A   Overcast
10:35 PM 43.7 °F 39.1 °F 40.1 °F 87% 30.31 in 5.0 mi NNW 8.1 mph - N/A   Overcast
10:55 PM 43.7 °F 38.6 °F 39.6 °F 85% 30.31 in 5.0 mi North 9.2 mph - N/A   Overcast
11:15 PM 43.7 °F 40.3 °F 39.6 °F 85% 30.31 in 5.0 mi North 5.8 mph - N/A   Overcast
11:35 PM 43.9 °F 39.9 °F 39.6 °F 85% 30.31 in 7.0 mi NNW 6.9 mph - N/A   Overcast
11:55 PM 44.1 °F 39.0 °F 39.9 °F 85% 30.30 in 5.0 mi North 9.2 mph - N/A   Overcast